カタログに戻る

KHORS NO. 5

運用中軍事SSO
NORAD 67283·PAYLOAD·🇷🇺 Russia
この衛星名は、まだ公式ソースで確認されていません。

打ち上げ Dec 28, 2025 から Vostochny Cosmodrome

Loading…

次のパス (今後24時間)

TLE

最新Source: Space-Track

元期: Sep 14, 2026, 10:12 UTC

1 67283U 25313AM  26257.42523502  .00006794  00000-0  27491-3 0  9997
2 67283  97.3865 331.1025 0011058  50.9117 309.3103 15.24971792 39568

AllMySatでKHORS NO. 5をリアルタイム追跡

Download on the App Store